Miscellaneous Local Product
Issued by NWS North Platte, NE

Home | Current Version | Previous Version | Text Only | Print | Product List | Glossary On
Versions: 1 2 3 4 5 6 7 8 9 10 11 12 13 14 15 16 17 18 19 20 21 22 23 24 25 26 27 28 29 30 31 32 33 34 35 36 37 38 39 40 41 42 43 44 45 46 47 48 49 50
000
AXUS43 KLBF 010910
MISLBF


WESTERN AND NORTH CENTRAL NEBRASKA HOURLY WEATHER ROUNDUP
NATIONAL WEATHER SERVICE NORTH PLATTE NE
300 AM CST SUN MAR 01 2015

***STATIONS NOT REPORTING VARIABLES SUCH AS SKY/WEATHER OR
PRESSURE ARE PROVIDED BY THE NEBRASKA DEPARTMENT OF
ROADS...RAWS...AND APRS NETWORKS...AND ARE NOT UNDER
NATIONAL WEATHER SERVICE QUALITY CONTROL***

...OBSERVATIONS IN AND NEAR THE EASTERN PANHANDLE OF NEBRASKA...

CITY           SKY/WX    TMP DP  RH WIND       PRES   REMARKS
PINE RIDGE     LGT SNOW  17  10  74 E3        30.20R
CHADRON        CLOUDY    18  10  71 N9        30.21R WCI   7
ALLIANCE       CLOUDY    16   9  74 NE6       30.13R WCI   7
SIDNEY         CLOUDY    20  15  81 CALM      30.11R
WHITECLAY        N/A     16  10  79 CALM        N/A
CRESCENT LAKE    N/A     19  12  73 CALM        N/A
LISCO            N/A     24  14  66 CALM        N/A
BIG SPRINGS      N/A     21  15  78 CALM        N/A
LEWELLEN         N/A     17  10  72 CALM        N/A
$$

...OBSERVATIONS IN NORTH CENTRAL NEBRASKA...

CITY           SKY/WX    TMP DP  RH WIND       PRES   REMARKS
VALENTINE      CLOUDY    17   8  67 CALM      30.23S
THEDFORD       CLOUDY    17  10  71 CALM      30.21S
AINSWORTH      CLOUDY    16   7  66 NW5       30.22S WCI   9
O`NEILL        PTCLDY    15  10  79 NW3       30.24S
ORD            PTCLDY    12   7  80 SW6       30.25R WCI   3
BROKEN BOW     MOCLDY    17  12  80 CALM      30.23R
BROWNLEE         N/A     14   5  66 W3          N/A
SPRINGVIEW       N/A     13   5  69 CALM        N/A
BREWSTER         N/A     20  16  86 N3          N/A
ROSE             N/A     21  13  72 CALM        N/A
NEWPORT          N/A     22  14  71 NW6         N/A  WCI  14
SARGENT          N/A     17  13  84 CALM        N/A
COMSTOCK         N/A     21  18  86 CALM        N/A
CHAMBERS         N/A     10   1  66 CALM        N/A
EWING            N/A     13  10  86 W3          N/A
$$

...OBSERVATIONS IN SOUTHWEST NEBRASKA AND FAR NORTHEAST COLORADO...

CITY           SKY/WX    TMP DP  RH WIND       PRES   REMARKS
WRAY           CLOUDY    19  16  87 CALM      30.14S
IMPERIAL         N/A     18  12  77 SE5       30.17R WCI  11
OGALLALA       CLOUDY    20  14  76 CALM      30.17R
NORTH PLATTE   CLOUDY    19  13  77 CALM      30.21R
MCCOOK         CLOUDY    22  15  75 SW6       30.23R WCI  14
LEXINGTON      CLOUDY    16  13  89 CALM      30.24S
PAXTON           N/A     20  14  78 CALM        N/A
BRADY            N/A     17  12  82 CALM        N/A
GOTHENBURG       N/A     17  12  82 CALM        N/A
CALLAWAY         N/A     17  14  86 NW5         N/A  WCI  10
$$

...NORTH PLATTE AREA...

CITY           SKY/WX    TMP DP  RH WIND       PRES   REMARKS
AIRPORT        CLOUDY    19  13  77 CALM      30.21R
DOWNTOWN         N/A     18  11  75 CALM        N/A
$$

...SOME WEATHER OBSERVATIONS FROM AROUND THE REGION...

CITY           SKY/WX    TMP DP  RH WIND       PRES   REMARKS
DENVER         PTCLDY    11   7  84 S5        30.03R WCI   3
LARAMIE        CLOUDY    13  10  88 NE3       29.94R
CHEYENNE       LGT SNOW  17  12  80 N6        30.00R WCI   9
SCOTTSBLUFF    MOCLDY    21  12  68 NE8       30.14R WCI  11
RAPID CITY     CLOUDY    14  10  84 SW6       30.19S WCI   5
PIERRE         PTCLDY    11   3  70 W8        30.24F WCI  -1
WINNER         CLOUDY    16   3  56 W5        30.26R WCI   9
SIOUX FALLS    PTCLDY    13   9  84 W3        30.25R
OMAHA          CLOUDY    22  14  71 SW8       30.34F WCI  12
GRAND ISLAND   MOCLDY    16  12  84 SW7       30.28R WCI   6
KANSAS CITY    CLOUDY    22  19  89 CALM      30.35S
WICHITA        FOG       23  20  88 CALM      30.32F VSB 1/4
HAYS           MOCLDY    12   3  67 CALM      30.26S
LIBERAL        CLOUDY    23  18  80 S7        30.19S WCI  15
GOODLAND       CLOUDY    19  17  92 S7        30.14S WCI  10
$$



USA.gov is the U.S. government's official web portal to all federal, state and local government web resources and services.